[TLELIST] Archives

 

[list_settings.list_name] Current TLEs

February 21st 2022 PST

HST 1 20580U 90037B 22051.86776861 .00001428 00000-0 74642-4 0 9995 2 20580 28.4686 221.0024 0002389 216.5258 258.0137 15.10054518548578 ISS (ZARYA) 1 25544U 98067A 22052.45512282 .00077844 00000-0 13642-2 0 9998 2 25544 51.6364 189.7232 0004512 151.9284 313.6118 15.49873570327230 CXO 1 25867U 99040B 22051.69659385 .00000806 00000-0 00000+0 0 9994 2 25867 48.5794 242.8754 8677685 230.2053 0.5935 0.37814590 22510 ____________________________________________________________________ These 2-Line ...Continue Reading

[list_settings.list_name] Current TLEs

February 20th 2022 PST

HST 1 20580U 90037B 22050.88212767 .00001561 00000-0 82610-4 0 9998 2 20580 28.4686 227.5285 0002427 205.4513 300.3268 15.10052534548428 ISS (ZARYA) 1 25544U 98067A 22051.42520138 -.00003325 00000-0 -50518-4 0 9993 2 25544 51.6414 194.8245 0005222 148.4347 326.8357 15.49856847327078 CXO 1 25867U 99040B 22051.69659385 .00000806 00000-0 00000+0 0 9994 2 25867 48.5794 242.8754 8677685 230.2053 0.5935 0.37814590 22510 ____________________________________________________________________ These 2-Line ...Continue Reading

[list_settings.list_name] Current TLEs

February 19th 2022 PST

HST 1 20580U 90037B 22049.88368279 .00001487 00000-0 78165-4 0 9993 2 20580 28.4688 234.1393 0002470 194.3400 272.9426 15.10049257548274 ISS (ZARYA) 1 25544U 98067A 22050.38688870 .00009763 00000-0 17966-3 0 9994 2 25544 51.6433 199.9638 0005750 144.5589 293.6543 15.49859904326919 CXO 1 25867U 99040B 22051.69659385 .00000806 00000-0 00000+0 0 9994 2 25867 48.5794 242.8754 8677685 230.2053 0.5935 0.37814590 22510 ____________________________________________________________________ These 2-Line ...Continue Reading

[list_settings.list_name] Current TLEs

February 18th 2022 PST

HST 1 20580U 90037B 22048.89162962 .00001455 00000-0 76255-4 0 9997 2 20580 28.4689 240.7078 0002515 183.5024 280.1088 15.10045975548122 ISS (ZARYA) 1 25544U 98067A 22049.48177657 .00008616 00000-0 15964-3 0 9991 2 25544 51.6433 204.4462 0005816 141.5561 283.2717 15.49836777326771 CXO 1 25867U 99040B 22051.69659385 .00000806 00000-0 00000+0 0 9994 2 25867 48.5794 242.8754 8677685 230.2053 0.5935 0.37814590 22510 ____________________________________________________________________ These 2-Line ...Continue Reading

[list_settings.list_name] Current TLEs

February 17th 2022 PST

HST 1 20580U 90037B 22047.88679115 .00001714 00000-0 91801-4 0 9990 2 20580 28.4690 247.3608 0002568 172.7101 217.6011 15.10044131547976 ISS (ZARYA) 1 25544U 98067A 22048.25625881 .00007363 00000-0 13775-3 0 9998 2 25544 51.6426 210.5151 0005682 138.2695 284.4055 15.49809022326588 CXO 1 25867U 99040B 22049.05123833 .00000841 00000-0 00000+0 0 9994 2 25867 48.6839 243.0898 8677108 230.0953 0.5159 0.37813077 22506 ____________________________________________________________________ These 2-Line ...Continue Reading

[list_settings.list_name] Current TLEs

February 16th 2022 PST

HST 1 20580U 90037B 22046.89433564 .00001617 00000-0 86032-4 0 9998 2 20580 28.4691 253.9317 0002609 162.1928 222.2746 15.10040013547829 ISS (ZARYA) 1 25544U 98067A 22047.03796387 .00008563 00000-0 15896-3 0 9992 2 25544 51.6422 216.5495 0005799 134.2991 326.6921 15.49794547326390 CXO 1 25867U 99040B 22049.05123833 .00000841 00000-0 00000+0 0 9994 2 25867 48.6839 243.0898 8677108 230.0953 0.5159 0.37813077 22506 ____________________________________________________________________ These 2-Line ...Continue Reading

[list_settings.list_name] Current TLEs

February 15th 2022 PST

HST 1 20580U 90037B 22046.05516531 .00001837 00000-0 99223-4 0 9992 2 20580 28.4692 259.4877 0002636 153.4205 340.1492 15.10038124547966 ISS (ZARYA) 1 25544U 98067A 22046.44413044 .00009381 00000-0 17338-3 0 9994 2 25544 51.6420 219.4911 0005805 132.7911 252.8835 15.49787588326308 CXO 1 25867U 99040B 22046.40586301 .00000764 00000-0 00000-0 0 9998 2 25867 48.7699 243.2772 8674674 229.9941 0.4712 0.37807645 11341 ____________________________________________________________________ These 2-Line ...Continue Reading

[list_settings.list_name] Current TLEs

February 14th 2022 PST

HST 1 20580U 90037B 22044.78349041 .00001920 00000-0 10420-3 0 9994 2 20580 28.4693 267.9073 0002669 140.2350 266.6320 15.10033886547760 ISS (ZARYA) 1 25544U 98067A 22045.35632566 .00009462 00000-0 17493-3 0 9997 2 25544 51.6424 224.8792 0005854 129.9849 302.6064 15.49766725326130 CXO 1 25867U 99040B 22046.40586301 .00000764 00000-0 00000-0 0 9998 2 25867 48.7699 243.2772 8674674 229.9941 0.4712 0.37807645 11341 ____________________________________________________________________ These 2-Line ...Continue Reading

[list_settings.list_name] Current TLEs

February 13th 2022 PST

HST 1 20580U 90037B 22043.91978119 .00002000 00000-0 10900-3 0 9995 2 20580 28.4695 273.6256 0002692 131.5730 250.7560 15.10031068547377 ISS (ZARYA) 1 25544U 98067A 22044.38858772 .00008424 00000-0 15677-3 0 9997 2 25544 51.6418 229.6715 0005996 127.7272 302.1582 15.49743670325980 CXO 1 25867U 99040B 22046.40586301 .00000764 00000-0 00000+0 0 9997 2 25867 48.7699 243.2772 8674674 229.9941 0.4712 0.37807645 22499 ____________________________________________________________________ These 2-Line ...Continue Reading

[list_settings.list_name] Current TLEs

February 12th 2022 PST

HST 1 20580U 90037B 22042.87528411 .00002086 00000-0 11418-3 0 9994 2 20580 28.4697 280.5410 0002715 121.0225 332.0492 15.10027701547217 ISS (ZARYA) 1 25544U 98067A 22043.04740830 .00007497 00000-0 14056-3 0 9993 2 25544 51.6416 236.3149 0005927 123.7129 18.7351 15.49716299325773 CXO 1 25867U 99040B 22043.76058329 .00000613 00000-0 00000-0 0 9991 2 25867 48.8350 243.4332 8671672 229.9113 0.4273 0.37805587 11330 ____________________________________________________________________ These 2-Line ...Continue Reading
  • This mailing list is a public mailing list - anyone may join or leave, at any time.
  • This mailing list is announce-only.

International Space Station (ISS) / Hubble Space Telescope (HST) / Chandra X-Ray Observatory Orbital Data via EMAIL

Privacy Policy:

Private list